EW3700 Weather Reports


Display with metric or nautical units.
time (UTC)temp
F
wind
direction
speed
MPH
gust
MPH
rain 1hr
in
rain 24hr
in
rain mn
in
humidity
%
barometer
mb
20260506084016 34 0.0 0.0 0.00 0.00 0.00 67 1013.1
20260506083057 34 0.0 0.0 0.00 0.00 0.00 66 1013.0
20260506082016 35 0.0 0.0 0.00 0.00 0.00 65 1013.2
20260506081017 35 0.0 0.0 0.00 0.00 0.00 64 1013.3
20260506073017 36 0.0 2.0 0.00 0.00 0.00 62 1012.8
20260506072016 36 0.0 1.0 0.00 0.00 0.00 61 1012.8
20260506071021 36 315 1.0 3.0 0.00 0.00 0.00 61 1012.8
20260506062016 38 0.0 2.0 0.00 0.00 0.00 58 1012.8
20260506061056 38 0.0 2.0 0.00 0.00 0.00 58 1013.0
20260506051018 39 315 1.0 8.0 0.00 0.00 0.00 56 1012.5
20260506045021 40 315 1.0 4.0 0.00 0.00 0.00 55 1012.2
20260506044016 40 315 2.0 7.0 0.00 0.00 0.00 54 1012.2
20260506043017 40 315 1.0 4.0 0.00 0.00 0.00 54 1012.2
20260506042036 40 315 1.0 5.0 0.00 0.00 0.00 54 1012.2
20260506041016 41 315 1.0 4.0 0.00 0.00 0.00 53 1012.2
20260506040037 41 315 1.0 4.0 0.00 0.00 0.00 53 1012.2
20260506035016 41 0.0 3.0 0.00 0.00 0.00 52 1012.2
20260506034037 41 315 1.0 4.0 0.00 0.00 0.00 52 1012.1
20260506033016 42 315 2.0 8.0 0.00 0.00 0.00 52 1011.9
20260506032016 42 338 1.0 5.0 0.00 0.00 0.00 53 1012.0
20260506031016 42 293 1.0 5.0 0.00 0.00 0.00 53 1011.9
20260506030016 43 293 1.0 4.0 0.00 0.00 0.00 52 1011.8
20260506025016 43 315 1.0 5.0 0.00 0.00 0.00 51 1011.5
20260506024016 44 293 1.0 4.0 0.00 0.00 0.00 50 1011.4
20260506023016 44 315 2.0 10.0 0.00 0.00 0.00 49 1011.2
20260506022016 44 315 1.0 4.0 0.00 0.00 0.00 49 1011.1
20260506021016 44 315 1.0 5.0 0.00 0.00 0.00 47 1010.9
20260506020036 45 315 1.0 8.0 0.00 0.00 0.00 47 1010.6
20260506015016 45 293 2.0 9.0 0.00 0.00 0.00 46 1010.5
20260506014016 45 293 2.0 10.0 0.00 0.00 0.00 45 1010.5
20260506013038 46 270 1.0 6.0 0.00 0.00 0.00 45 1010.3
20260506012039 46 293 4.0 12.0 0.00 0.00 0.00 44 1010.1
20260506011038 46 293 1.0 9.0 0.00 0.00 0.00 45 1010.1
20260506010018 47 293 2.0 7.0 0.00 0.00 0.00 44 1010.0
20260506005018 47 315 2.0 9.0 0.00 0.00 0.00 43 1010.0
20260506004018 48 315 1.0 7.0 0.00 0.00 0.00 43 1009.8
20260506003018 48 315 3.0 14.0 0.00 0.00 0.00 41 1009.7
20260506002018 49 293 2.0 12.0 0.00 0.00 0.00 40 1009.6
20260506001038 48 293 2.0 9.0 0.00 0.00 0.00 42 1009.5
20260506000018 48 315 2.0 9.0 0.00 0.00 0.00 41 1009.4
20260505235018 48 315 2.0 8.0 0.00 0.00 0.00 41 1009.4
20260505234018 48 270 2.0 13.0 0.00 0.00 0.00 41 1009.3
20260505233017 48 270 2.0 13.0 0.00 0.00 0.00 40 1009.3
20260505232018 48 270 2.0 7.0 0.00 0.00 0.00 40 1009.3
20260505231038 49 270 2.0 10.0 0.00 0.00 0.00 40 1009.2
20260505230018 49 315 3.0 9.0 0.00 0.00 0.00 40 1009.2
20260505225018 49 293 2.0 9.0 0.00 0.00 0.00 40 1009.1
20260505224018 49 270 5.0 14.0 0.00 0.00 0.00 39 1009.2
20260505223018 50 270 3.0 11.0 0.00 0.00 0.00 40 1009.1
20260505222018 50 270 5.0 19.0 0.00 0.00 0.00 39 1009.1
20260505221017 50 293 3.0 9.0 0.00 0.00 0.00 40 1009.2
20260505220038 49 293 3.0 10.0 0.00 0.00 0.00 41 1009.3
20260505215018 49 315 3.0 11.0 0.00 0.00 0.00 41 1009.3
20260505214017 49 270 1.0 8.0 0.00 0.00 0.00 41 1009.4
20260505213039 49 270 2.0 10.0 0.00 0.00 0.00 41 1009.5
20260505212017 49 293 2.0 9.0 0.00 0.00 0.00 41 1009.3
20260505211058 49 270 3.0 12.0 0.00 0.00 0.00 40 1009.4
20260505210037 49 270 3.0 15.0 0.00 0.00 0.00 40 1009.5
20260505205017 49 293 3.0 11.0 0.00 0.00 0.00 40 1009.5
20260505204018 50 315 2.0 6.0 0.00 0.00 0.00 41 1009.4
20260505203018 49 270 5.0 15.0 0.00 0.00 0.00 40 1009.6
20260505202018 49 270 2.0 10.0 0.00 0.00 0.00 41 1009.7
20260505201024 50 293 2.0 7.0 0.00 0.00 0.00 41 1009.6
20260505200017 49 315 4.0 14.0 0.00 0.00 0.00 40 1009.6
20260505195017 49 270 4.0 12.0 0.00 0.00 0.00 40 1009.6
20260505194037 50 315 2.0 14.0 0.00 0.00 0.00 39 1009.4
20260505193017 50 293 1.0 4.0 0.00 0.00 0.00 40 1009.6
20260505192017 49 270 4.0 14.0 0.00 0.00 0.00 40 1009.5
20260505191037 49 270 3.0 12.0 0.00 0.00 0.00 40 1009.6
20260505190017 49 270 4.0 14.0 0.00 0.00 0.00 40 1009.6
20260505185017 49 270 3.0 15.0 0.00 0.00 0.00 40 1009.6
20260505184017 49 270 3.0 9.0 0.00 0.00 0.00 40 1009.5
20260505183017 49 270 1.0 8.0 0.00 0.00 0.00 42 1009.5
20260505182037 48 315 2.0 8.0 0.00 0.00 0.00 41 1009.6
20260505181017 48 293 2.0 13.0 0.00 0.00 0.00 41 1009.6
20260505180017 48 293 4.0 12.0 0.00 0.00 0.00 40 1009.6
20260505175018 48 315 2.0 9.0 0.00 0.00 0.00 41 1009.5
20260505174018 48 315 3.0 10.0 0.00 0.00 0.00 40 1009.6
20260505173017 48 270 3.0 8.0 0.00 0.00 0.00 42 1009.7
20260505172037 48 270 6.0 17.0 0.00 0.00 0.00 40 1009.7
20260505171017 48 270 4.0 16.0 0.00 0.00 0.00 41 1009.7
20260505170017 47 270 4.0 12.0 0.00 0.00 0.00 40 1009.6
20260505165017 47 270 2.0 9.0 0.00 0.00 0.00 42 1009.7
20260505164017 47 270 3.0 12.0 0.00 0.00 0.00 41 1009.6
20260505163017 48 315 2.0 10.0 0.00 0.00 0.00 42 1009.6
20260505162017 47 293 1.0 7.0 0.00 0.00 0.00 42 1009.6
20260505161018 46 270 3.0 9.0 0.00 0.00 0.00 43 1009.6
20260505153017 46 293 4.0 11.0 0.00 0.00 0.00 45 1009.7
20260505152017 45 270 3.0 9.0 0.00 0.00 0.00 44 1009.6
20260505151027 45 270 3.0 13.0 0.00 0.00 0.00 46 1009.5
20260505125017 40 293 4.0 9.0 0.00 0.00 0.00 51 1008.4
20260505124016 40 338 3.0 11.0 0.00 0.00 0.00 53 1008.2
20260505123017 39 315 3.0 10.0 0.00 0.00 0.00 55 1008.0
20260505122036 38 338 1.0 6.0 0.00 0.00 0.00 58 1008.0
20260505121016 38 293 3.0 10.0 0.00 0.00 0.00 60 1007.8
20260505120017 38 315 2.0 9.0 0.00 0.00 0.00 62 1007.7
20260505115016 38 315 2.0 5.0 0.00 0.00 0.00 63 1007.5
20260505114016 38 315 2.0 8.0 0.00 0.00 0.00 64 1007.2
20260505113016 37 293 1.0 7.0 0.00 0.00 0.00 66 1007.1
20260505112016 38 293 2.0 7.0 0.00 0.00 0.00 66 1007.0
20260505111036 38 293 3.0 10.0 0.00 0.00 0.00 67 1007.0
20260505102041 39 293 1.0 4.0 0.00 0.00 0.00 66 1006.9
20260505101016 39 293 2.0 7.0 0.00 0.00 0.00 66 1006.7
20260505100036 39 315 1.0 4.0 0.00 0.00 0.00 65 1006.6
20260505095016 39 315 3.0 8.0 0.00 0.00 0.00 65 1006.7
20260505094016 39 315 1.0 9.0 0.00 0.00 0.00 64 1006.7
20260505093016 40 293 2.0 8.0 0.00 0.00 0.00 63 1006.6
20260505092020 40 270 2.0 6.0 0.00 0.00 0.00 63 1006.5
20260505091016 40 338 4.0 11.0 0.00 0.00 0.00 62 1006.4
20260505090016 40 293 3.0 9.0 0.00 0.00 0.00 62 1006.3
20260505085021 41 293 2.0 7.0 0.00 0.00 0.00 61 1006.1